Little Rock AFB, AR

5:51 AM CDT on October 22, 2017 (GMT -0500)
Little Rock Air Force Base

Weather History for KLRF - February, 2014

Change the Weather History Date:

Sunday, February 2, 2014

  Actual Average Record
Temperature  
Mean Temperature 36 °F -  
Max Temperature 42 °F 51 °F 73 °F (2016)
Min Temperature 29 °F 32 °F 23 °F (2015)
Degree Days  
Heating Degree Days 30    
Moisture  
Dew Point 32 °F    
Average Humidity 94    
Maximum Humidity 100    
Minimum Humidity 80    
Precipitation  
Precipitation 1.47 in - - ()
Sea Level Pressure  
Sea Level Pressure 30.13 in    
Wind  
Wind Speed 10 mph (North)    
Max Wind Speed 16 mph    
Max Gust Speed 25 mph    
Visibility 7 miles    
Events Rain , Thunderstorm    
Averages and records for this station are not official NWS values.
T = Trace of Precipitation, MM = Missing Value Source: NWS Daily Summary

Daily Weather History Graph

Daily Weather History Graph

Search for Another Location

Airport or City:

Trip Planner

Search our weather history database for the weather conditions in past years. The results will help you decide how hot, cold, wet, or windy it might be!

Date:

Astronomy

Feb. 02, 2014 Rise Set
Actual Time 7:06 AM CST 5:38 PM CST
Civil Twilight 6:39 AM CST 6:05 PM CST
Nautical Twilight 6:09 AM CST 6:35 PM CST
Astronomical Twilight 5:40 AM CST 7:05 PM CST
Moon 8:42 AM CST (2/2) 9:12 PM CST (2/2)
Length of Visible Light 11h 25m
Length of Day
10h 32m
Waxing Crescent, 11% of the Moon is Illuminated
Feb 2
Waxing Crescent
Feb 6
First Quarter
Feb 14
Full
Feb 22
Last Quarter
Mar 1
New

Hourly Weather History & Observations

Time (CST) Temp. Windchill Dew Point Humidity Pressure Visibility Wind Dir Wind Speed Gust Speed Precip Events Conditions
12:28 AM 42.8 °F 37.0 °F 42.8 °F 100% 29.99 in 8.0 mi NNW 10.4 mph - N/A Rain Rain
12:43 AM 41.0 °F 34.3 °F 41.0 °F 100% 29.99 in 10.0 mi NW 11.5 mph 17.3 mph N/A Rain Light Rain
12:53 AM 41.0 °F 35.8 °F 41.0 °F 100% 30.01 in 9.0 mi NW 8.1 mph 20.7 mph N/A Rain Rain
12:58 AM 41.4 °F 35.2 °F 40.3 °F 96% 30.03 in 9.0 mi NW 10.4 mph 20.7 mph 0.10 in Rain Light Rain
1:38 AM 41.0 °F 35.8 °F 39.2 °F 93% 30.01 in 10.0 mi NNW 8.1 mph - N/A   Overcast
1:54 AM 41.0 °F 37.1 °F 39.2 °F 93% 30.01 in 10.0 mi North 5.8 mph - N/A Rain Light Rain
1:58 AM 40.6 °F 36.7 °F 39.0 °F 94% 30.04 in 10.0 mi NW 5.8 mph - 0.03 in Rain Light Rain
2:32 AM 41.0 °F 34.3 °F 39.2 °F 93% 30.02 in 10.0 mi North 11.5 mph - N/A   Overcast
2:47 AM 39.2 °F 35.9 °F 37.4 °F 93% 30.05 in 10.0 mi Variable 4.6 mph 18.4 mph N/A   Overcast
2:58 AM 39.7 °F 34.3 °F 37.4 °F 91% 30.08 in 10.0 mi NNW 8.1 mph - 0.00 in   Overcast
2:59 AM 39.2 °F 33.6 °F 37.4 °F 93% 30.06 in 10.0 mi NNW 8.1 mph - N/A   Light Drizzle
3:04 AM 39.2 °F 32.0 °F 37.4 °F 93% 30.07 in 10.0 mi NNW 11.5 mph - N/A Rain Light Rain
3:19 AM 39.2 °F 32.5 °F 35.6 °F 87% 30.07 in 10.0 mi North 10.4 mph 16.1 mph N/A Rain Light Rain
3:39 AM 39.2 °F 33.0 °F 35.6 °F 87% 30.07 in 10.0 mi NNW 9.2 mph - N/A Rain Light Rain
3:58 AM 38.1 °F 31.2 °F 36.0 °F 92% 30.08 in 10.0 mi NNW 10.4 mph - 0.02 in Rain Light Rain
4:43 AM 37.4 °F 30.8 °F 35.6 °F 93% 30.06 in 10.0 mi North 9.2 mph - N/A Rain Light Rain
4:53 AM 37.4 °F 31.4 °F 35.6 °F 93% 30.07 in 10.0 mi North 8.1 mph - N/A Rain Light Rain
4:58 AM 37.0 °F 31.0 °F 35.2 °F 93% 30.08 in 10.0 mi NNW 8.1 mph - 0.02 in Rain Light Rain
5:04 AM 37.4 °F 30.3 °F 35.6 °F 93% 30.10 in 10.0 mi North 10.4 mph - N/A   Overcast
5:09 AM 37.4 °F 31.4 °F 33.8 °F 87% 30.11 in 10.0 mi North 8.1 mph - N/A   Overcast
5:12 AM 37.4 °F 31.4 °F 33.8 °F 87% 30.11 in 10.0 mi North 8.1 mph - N/A Rain Light Rain
5:26 AM 37.4 °F 32.8 °F 33.8 °F 87% 30.13 in 10.0 mi North 5.8 mph - N/A   Overcast
5:28 AM 37.4 °F 32.8 °F 33.8 °F 87% 30.13 in 10.0 mi North 5.8 mph - N/A Rain Light Rain
5:58 AM 36.1 °F 29.9 °F 33.3 °F 89% 30.13 in 10.0 mi North 8.1 mph - 0.00 in Rain Light Rain
6:27 AM 35.6 °F 28.0 °F 32.0 °F 87% 30.11 in 10.0 mi NNE 10.4 mph - N/A   Overcast
6:58 AM 35.6 °F 29.2 °F 32.9 °F 90% 30.15 in 10.0 mi NNE 8.1 mph - 0.00 in   Overcast
7:01 AM 35.6 °F 28.6 °F 32.0 °F 87% 30.13 in 10.0 mi NNE 9.2 mph - N/A Rain Light Rain
7:58 AM 34.7 °F 26.4 °F 32.5 °F 92% 30.12 in 10.0 mi NNE 11.5 mph - 0.02 in   Light Drizzle
8:01 AM 35.6 °F 28.0 °F 32.0 °F 87% 30.11 in 10.0 mi NNE 10.4 mph - N/A   Overcast
8:51 AM 33.8 °F 25.3 °F 32.0 °F 93% 30.17 in 10.0 mi North 11.5 mph - N/A Rain Light Rain
8:58 AM 34.5 °F 26.7 °F 31.3 °F 88% 30.19 in 10.0 mi North 10.4 mph - 0.00 in Rain Light Rain
9:36 AM 33.8 °F 27.0 °F 32.0 °F 93% 30.18 in 5.0 mi North 8.1 mph - N/A Rain Light Rain
9:51 AM 33.8 °F 27.0 °F 32.0 °F 93% 30.18 in 4.0 mi North 8.1 mph - N/A Rain Light Rain
9:56 AM 33.8 °F 25.3 °F 32.0 °F 93% 30.16 in 4.0 mi NNE 11.5 mph - N/A Rain Light Rain
9:58 AM 34.2 °F 26.2 °F 32.5 °F 94% 30.18 in 4.0 mi NNE 10.4 mph - 0.01 in Rain Light Rain
10:03 AM 33.8 °F 25.3 °F 32.0 °F 93% 30.15 in 4.0 mi NNE 11.5 mph 17.3 mph N/A Rain Light Rain
10:08 AM 33.8 °F 24.8 °F 32.0 °F 93% 30.15 in 5.0 mi NNE 12.7 mph 18.4 mph N/A Rain Light Rain
10:13 AM 33.8 °F 24.3 °F 32.0 °F 93% 30.14 in 6.0 mi NNE 13.8 mph - N/A Rain Light Rain
10:24 AM 33.8 °F 25.8 °F 32.0 °F 93% 30.13 in 7.0 mi NNE 10.4 mph - N/A   Overcast
10:34 AM 33.8 °F 26.4 °F 32.0 °F 93% 30.15 in 10.0 mi NNE 9.2 mph - N/A   Overcast
10:48 AM 33.8 °F 25.8 °F 32.0 °F 93% 30.16 in 10.0 mi NNE 10.4 mph - N/A Rain Light Rain
10:52 AM 33.8 °F 23.9 °F 32.0 °F 93% 30.15 in 7.0 mi NE 15.0 mph 19.6 mph N/A Rain Light Rain
10:57 AM 33.8 °F 24.8 °F 32.0 °F 93% 30.15 in 3.0 mi NNE 12.7 mph 20.7 mph N/A Rain Rain
10:58 AM 33.8 °F 25.3 °F 32.0 °F 93% 30.17 in 2.5 mi NNE 11.5 mph 20.7 mph 0.02 in Rain Rain
11:03 AM 32.0 °F 23.6 °F 32.0 °F 100% 30.16 in 2.0 mi North 10.4 mph 20.7 mph N/A Rain Heavy Rain
11:08 AM 32.0 °F 22.5 °F 32.0 °F 100% 30.15 in 2.5 mi NNE 12.7 mph - N/A Rain Rain
11:13 AM 32.0 °F 23.6 °F 32.0 °F 100% 30.15 in 2.5 mi NNE 10.4 mph - N/A Rain Rain
11:18 AM 32.0 °F 23.6 °F 32.0 °F 100% 30.15 in 3.0 mi NNE 10.4 mph - N/A Rain Light Rain
11:23 AM 32.0 °F 24.2 °F 32.0 °F 100% 30.15 in 5.0 mi NNE 9.2 mph - N/A Rain Light Rain
11:28 AM 32.0 °F 23.6 °F 32.0 °F 100% 30.15 in 7.0 mi NNE 10.4 mph - N/A Rain Light Rain
11:32 AM 32.0 °F 24.2 °F 32.0 °F 100% 30.15 in 7.0 mi NNE 9.2 mph - N/A Rain Light Rain
11:52 AM 32.0 °F 24.2 °F 32.0 °F 100% 30.17 in 5.0 mi NNE 9.2 mph - N/A Rain Light Rain
11:56 AM 32.0 °F 24.8 °F 32.0 °F 100% 30.18 in 3.0 mi NNE 8.1 mph - N/A Rain Rain
11:58 AM 33.4 °F 27.3 °F 31.3 °F 92% 30.20 in 2.5 mi NNE 6.9 mph - 0.16 in Rain Rain
12:13 PM 32.0 °F 22.1 °F 32.0 °F 100% 30.15 in 2.0 mi North 13.8 mph 20.7 mph N/A Rain , Thunderstorm Heavy Rain
12:23 PM 32.0 °F 23.6 °F 32.0 °F 100% 30.13 in 2.0 mi NNE 10.4 mph 25.3 mph N/A   Overcast
12:28 PM 32.0 °F 24.8 °F 32.0 °F 100% 30.15 in 2.0 mi North 8.1 mph 25.3 mph N/A Rain Heavy Rain
12:38 PM 32.0 °F 24.8 °F 32.0 °F 100% 30.17 in 2.5 mi NNW 8.1 mph - N/A Rain Heavy Rain
12:48 PM 32.0 °F 23.0 °F 32.0 °F 100% 30.13 in 3.0 mi NNE 11.5 mph - N/A Rain Rain
12:58 PM 33.1 °F 22.6 °F 31.5 °F 94% 30.13 in 5.0 mi North 16.1 mph - 0.37 in Rain Light Rain
1:23 PM 32.0 °F 23.6 °F 32.0 °F 100% 30.10 in 7.0 mi North 10.4 mph 18.4 mph N/A Rain Light Rain
1:28 PM 32.0 °F 23.6 °F 32.0 °F 100% 30.11 in 6.0 mi North 10.4 mph 18.4 mph N/A Rain Rain
1:53 PM 32.0 °F 23.0 °F 32.0 °F 100% 30.08 in 6.0 mi North 11.5 mph - N/A Rain Light Rain
1:58 PM 33.3 °F 26.4 °F 31.5 °F 93% 30.10 in 6.0 mi North 8.1 mph - 0.13 in Rain Rain
2:50 PM 32.0 °F 24.2 °F 32.0 °F 100% 30.10 in 4.0 mi NNE 9.2 mph - N/A Rain Light Rain
2:58 PM 33.4 °F 24.8 °F 31.6 °F 93% 30.11 in 4.0 mi North 11.5 mph - 0.09 in Rain Light Rain
3:03 PM 32.0 °F 24.2 °F 32.0 °F 100% 30.11 in 10.0 mi North 9.2 mph 21.9 mph N/A Rain Light Rain
3:04 PM 32.0 °F 24.8 °F 32.0 °F 100% 30.11 in 10.0 mi North 8.1 mph 21.9 mph N/A Rain Light Rain
3:09 PM 32.0 °F 23.0 °F 32.0 °F 100% 30.09 in 10.0 mi NNE 11.5 mph 21.9 mph N/A Rain Light Rain
3:24 PM 32.0 °F 23.6 °F 32.0 °F 100% 30.11 in 7.0 mi NE 10.4 mph 20.7 mph N/A Rain Light Rain
3:34 PM 32.0 °F 24.8 °F 32.0 °F 100% 30.13 in 10.0 mi North 8.1 mph - N/A Rain Light Rain
3:49 PM 32.0 °F 22.1 °F 32.0 °F 100% 30.09 in 4.0 mi North 13.8 mph - N/A Rain Rain
3:58 PM 32.7 °F 25.0 °F 30.7 °F 92% 30.14 in 3.0 mi North 9.2 mph 19.6 mph 0.12 in Rain Rain
4:03 PM 32.0 °F 23.0 °F 32.0 °F 100% 30.10 in 3.0 mi North 11.5 mph 18.4 mph N/A Rain Rain
4:13 PM 32.0 °F 23.6 °F 32.0 °F 100% 30.11 in 4.0 mi NNE 10.4 mph - N/A Rain Rain
4:18 PM 32.0 °F 22.5 °F 32.0 °F 100% 30.12 in 4.0 mi NNE 12.7 mph 18.4 mph N/A Rain Rain
4:22 PM 32.0 °F 23.6 °F 32.0 °F 100% 30.13 in 4.0 mi NE 10.4 mph - N/A Rain Rain
4:32 PM 32.0 °F 22.5 °F 32.0 °F 100% 30.11 in 4.0 mi NNE 12.7 mph - N/A Rain Rain
4:37 PM 32.0 °F 23.0 °F 32.0 °F 100% 30.10 in 4.0 mi NNE 11.5 mph - N/A Rain Rain
4:47 PM 32.0 °F 23.0 °F 32.0 °F 100% 30.12 in 4.0 mi NNE 11.5 mph 18.4 mph N/A Rain Rain
4:58 PM 32.7 °F 23.9 °F 30.7 °F 92% 30.13 in 6.0 mi NNE 11.5 mph 17.3 mph 0.26 in Rain Light Rain
5:14 PM 32.0 °F 21.6 °F 32.0 °F 100% 30.09 in 6.0 mi North 15.0 mph 24.2 mph N/A Rain Light Rain
5:44 PM 32.0 °F 24.8 °F 32.0 °F 100% 30.14 in 10.0 mi North 8.1 mph 18.4 mph N/A Rain Light Rain
5:52 PM 32.0 °F 24.8 °F 32.0 °F 100% 30.14 in 10.0 mi North 8.1 mph 18.4 mph N/A Rain Light Freezing Rain
5:58 PM 32.7 °F 25.7 °F 30.4 °F 91% 30.16 in 10.0 mi North 8.1 mph 17.3 mph 0.06 in Rain Light Freezing Rain
6:02 PM 32.0 °F 23.6 °F 32.0 °F 100% 30.15 in 9.0 mi North 10.4 mph - N/A Rain Rain
6:58 PM 32.9 °F 25.9 °F 30.4 °F 90% 30.18 in 10.0 mi North 8.1 mph - 0.05 in Rain Light Rain
7:44 PM 32.0 °F 21.6 °F 30.2 °F 93% 30.12 in 10.0 mi North 15.0 mph 18.4 mph N/A   Overcast
7:58 PM 32.2 °F 23.2 °F 28.9 °F 88% 30.15 in 10.0 mi North 11.5 mph - 0.01 in   Overcast
8:18 PM 32.0 °F 22.5 °F 28.4 °F 87% 30.15 in 10.0 mi North 12.7 mph 19.6 mph N/A   Overcast
8:23 PM 32.0 °F 23.6 °F 28.4 °F 87% 30.17 in 10.0 mi North 10.4 mph 19.6 mph N/A   Overcast
8:28 PM 32.0 °F 23.6 °F 26.6 °F 80% 30.19 in 10.0 mi NNE 10.4 mph - N/A   Overcast
8:58 PM 31.1 °F 23.1 °F 27.5 °F 87% 30.20 in 10.0 mi NNE 9.2 mph - N/A   Overcast
9:03 PM 32.0 °F 24.8 °F 28.4 °F 87% 30.18 in 10.0 mi NNE 8.1 mph - N/A   Overcast
9:33 PM 32.0 °F 24.8 °F 26.6 °F 80% 30.22 in 10.0 mi North 8.1 mph - N/A   Overcast
9:58 PM 30.2 °F 21.9 °F 26.2 °F 85% 30.25 in 10.0 mi NNW 9.2 mph 17.3 mph N/A   Overcast
10:58 PM 29.7 °F 24.7 °F 25.7 °F 85% 30.28 in 10.0 mi NW 4.6 mph - N/A   Overcast
11:03 PM 30.2 °F 24.3 °F 26.6 °F 86% 30.26 in 10.0 mi Variable 5.8 mph - N/A   Overcast
11:28 PM 30.2 °F 22.6 °F 24.8 °F 80% 30.24 in 10.0 mi North 8.1 mph - N/A   Overcast
11:38 PM 30.2 °F 20.8 °F 24.8 °F 80% 30.24 in 10.0 mi NNE 11.5 mph - N/A   Overcast
11:58 PM 29.1 °F 21.3 °F 23.7 °F 80% 30.26 in 10.0 mi North 8.1 mph - N/A   Overcast